Location: Quaker Farms
(41.4276°N, 73.1557°W)
Time: 18:49:41
(UTC+00:00)

Vanguard 2 Rocket - All Passes

Search period start: 18 June 2021 00:00
Search period end: 28 June 2021 00:00
Orbit: 554 x 3326 km, 32.9° (Epoch: 17 June)

Date Brightness Start Highest point End Pass type
(mag) Time Alt. Az. Time Alt. Az. Time Alt. Az.
18 Jun - 02:00:58 10° WSW 02:18:52 59° S 02:29:51 10° E visible
18 Jun - 04:19:49 10° W 04:33:49 50° SSW 04:41:53 10° SE visible
18 Jun - 06:39:19 10° W 06:46:20 20° SW 06:51:18 10° S visible
18 Jun - 20:36:01 10° SSE 20:45:23 15° SE 20:54:31 10° ESE daylight
18 Jun - 22:43:30 10° SSW 23:00:59 38° SSE 23:15:25 10° E daylight
19 Jun - 00:58:39 10° WSW 01:17:34 57° S 01:30:11 10° E visible
19 Jun - 03:17:04 10° W 03:33:24 57° S 03:42:58 10° ESE visible
19 Jun - 05:36:22 10° W 05:47:00 32° SW 05:53:41 10° SSE visible
19 Jun - 21:43:35 10° SSW 21:59:30 31° SE 22:14:01 10° E daylight
19 Jun - 23:56:49 10° SW 00:15:59 53° SSE 00:30:09 10° E daylight
20 Jun - 02:14:21 10° WSW 02:32:31 61° S 02:43:41 10° ESE visible
20 Jun - 04:33:33 10° W 04:47:14 43° SSW 04:55:21 10° SE visible
20 Jun - 06:54:44 10° WSW 06:59:13 14° SW 07:02:51 10° SSW visible
20 Jun - 20:44:47 10° S 20:58:14 23° SE 21:11:31 10° E daylight
20 Jun - 22:55:36 10° SW 23:14:15 47° SSE 23:29:39 10° E daylight
21 Jun - 01:11:51 10° WSW 01:31:10 62° S 01:44:03 10° E visible
21 Jun - 03:30:41 10° W 03:46:56 53° SSW 03:56:36 10° SE visible
21 Jun - 05:50:40 10° W 06:00:01 24° SW 06:06:22 10° S visible
21 Jun - 19:47:52 10° SSE 19:57:17 16° SE 20:07:00 10° ESE daylight
21 Jun - 21:55:09 10° SSW 22:12:33 40° SSE 22:28:34 10° E daylight
22 Jun - 00:09:46 10° WSW 00:29:28 60° S 00:44:04 10° E daylight
22 Jun - 02:27:53 10° W 02:46:07 60° S 02:57:25 10° ESE visible
22 Jun - 04:47:26 10° W 05:00:25 36° SW 05:08:30 10° SSE visible
22 Jun - 20:55:34 10° SSW 21:11:04 32° SE 21:26:43 10° E daylight
22 Jun - 23:08:15 10° SW 23:27:35 55° SSE 23:43:39 10° E daylight
23 Jun - 01:25:16 10° WSW 01:44:46 63° S 01:57:51 10° ESE visible
23 Jun - 03:44:24 10° W 04:00:17 47° SSW 04:10:00 10° SE visible
23 Jun - 06:05:42 10° W 06:12:48 17° SW 06:18:11 10° SSW visible
23 Jun - 19:57:05 10° S 20:09:56 24° SE 20:23:44 10° E daylight
23 Jun - 22:07:25 10° SW 22:25:41 49° SSE 22:42:43 10° E daylight
24 Jun - 00:23:02 10° WSW 00:43:01 64° S 00:57:54 10° E daylight
24 Jun - 02:41:30 10° W 02:59:34 56° SSW 03:11:00 10° SE visible
24 Jun - 05:01:38 10° W 05:13:21 28° SW 05:21:11 10° SSE visible
24 Jun - 19:00:30 10° SSE 19:09:13 16° SE 19:18:43 10° E daylight
24 Jun - 21:07:21 10° SSW 21:23:58 41° SSE 21:41:09 10° E daylight
24 Jun - 23:21:19 10° WSW 23:41:00 61° SSE 23:57:31 10° E daylight
25 Jun - 01:38:50 10° W 01:58:19 62° S 02:11:34 10° ESE visible
25 Jun - 03:58:16 10° W 04:13:24 39° SSW 04:23:06 10° SSE visible
25 Jun - 06:23:50 10° WSW 06:25:23 10° SW 06:26:51 10° SW visible
25 Jun - 20:08:08 10° SSW 20:22:37 32° SE 20:38:50 10° E daylight
25 Jun - 22:20:13 10° SW 22:38:55 56° SSE 22:56:38 10° E daylight
26 Jun - 00:36:30 10° WSW 00:56:34 65° S 01:11:39 10° ESE visible
26 Jun - 02:55:13 10° W 03:12:52 49° SSW 03:24:21 10° SE visible
26 Jun - 05:16:29 10° W 05:26:02 20° SW 05:33:05 10° S visible
26 Jun - 19:10:00 10° S 19:21:44 23° SE 19:35:22 10° E daylight
26 Jun - 21:19:48 10° SW 21:37:00 49° SSE 21:55:14 10° E daylight
26 Jun - 23:34:40 10° WSW 23:54:30 65° S 00:11:18 10° E daylight
27 Jun - 01:52:28 10° W 02:11:44 58° SSW 02:25:04 10° SE visible
27 Jun - 04:12:25 10° W 04:26:15 31° SW 04:35:44 10° SSE visible
27 Jun - 18:13:51 10° SSE 18:21:19 15° SE 18:29:47 10° E daylight
27 Jun - 20:20:07 10° SSW 20:35:25 41° SSE 20:53:13 10° E daylight
27 Jun - 22:33:23 10° WSW 22:52:17 62° SSE 23:10:27 10° E daylight
